Cross City, FL

3:31 PM EDT on October 18, 2019 (GMT -0400)
Cross City

Weather History for KCTY - July, 2019

Change the Weather History Date:

Friday, July 19, 2019

  Actual Average Record
Temperature  
Mean Temperature 81 °F 82 °F  
Max Temperature 89 °F 91 °F 97 °F (2002)
Min Temperature 73 °F 72 °F 63 °F (2011)
Degree Days  
Heating Degree Days 0    
Month to date heating degree days 0  
Since 1 June heating degree days 0  
Since 1 July heating degree days 0  
Cooling Degree Days 16    
Month to date cooling degree days 347  
Year to date cooling degree days 1523  
Since 1 June cooling degree days 839  
Growing Degree Days 31 (Base 50)    
Moisture  
Dew Point 75 °F    
Average Humidity 87    
Maximum Humidity 100    
Minimum Humidity 57    
Precipitation  
Precipitation 0.00 in 0.18 in 1.16 in (2018)
Month to date precipitation 3.05 3.26  
Year to date precipitation 31.70 25.52  
Sea Level Pressure  
Sea Level Pressure 30.09 in    
Wind  
Wind Speed 3 mph (WSW)    
Max Wind Speed 13 mph    
Max Gust Speed 28 mph    
Visibility 8 miles    
Events Rain , Thunderstorm    
T = Trace of Precipitation, MM = Missing Value Source: NWS Daily Summary

Daily Weather History Graph

Daily Weather History Graph

Search for Another Location

Airport or City:

Astronomy

Jul. 19, 2019 Rise Set
Actual Time 6:44 AM EDT 8:32 PM EDT
Civil Twilight 6:17 AM EDT 8:59 PM EDT
Nautical Twilight 5:45 AM EDT 9:31 PM EDT
Astronomical Twilight 5:11 AM EDT 10:04 PM EDT
Moon 10:39 PM EDT (7/19) 9:03 AM EDT (7/19)
Length of Visible Light 14h 41m
Length of Day
13h 48m
Waning Gibbous, 93% of the Moon is Illuminated
Jul 19
Waning Gibbous
Jul 24
Last Quarter
Jul 31
New
Aug 7
First Quarter
Aug 15
Full

Hourly Weather History & Observations

Time (EDT) Temp. Heat Index Dew Point Humidity Pressure Visibility Wind Dir Wind Speed Gust Speed Precip Events Conditions
12:15 AM 77.9 °F - 77.0 °F 97% 30.08 in 10.0 mi Calm Calm - N/A   Clear
12:35 AM 78.1 °F - 77.4 °F 98% 30.07 in 7.0 mi Calm Calm - N/A   Clear
12:55 AM 77.0 °F - 77.0 °F 100% 30.07 in 7.0 mi Calm Calm - N/A   Clear
1:15 AM 77.9 °F - 77.4 °F 98% 30.07 in 7.0 mi Calm Calm - N/A   Clear
1:35 AM 77.9 °F - 77.4 °F 98% 30.07 in 4.0 mi Calm Calm - N/A   Clear
1:55 AM 77.2 °F - 76.6 °F 98% 30.07 in 5.0 mi Calm Calm - N/A   Clear
2:15 AM 76.5 °F - 75.7 °F 98% 30.07 in 7.0 mi Calm Calm - N/A   Clear
2:35 AM 76.6 °F - 76.1 °F 98% 30.07 in 5.0 mi Calm Calm - N/A   Clear
2:55 AM 76.5 °F - 75.9 °F 98% 30.07 in 5.0 mi Calm Calm - N/A   Clear
3:15 AM 76.8 °F - 76.5 °F 99% 30.06 in 5.0 mi SSE 4.6 mph - N/A   Clear
3:35 AM 76.6 °F - 76.1 °F 98% 30.05 in 5.0 mi Calm Calm - N/A   Clear
3:55 AM 77.0 °F - 77.0 °F 100% 30.05 in 7.0 mi Calm Calm - N/A   Clear
4:15 AM 75.9 °F - 75.4 °F 98% 30.05 in 5.0 mi Calm Calm - N/A   Clear
4:35 AM 76.3 °F - 75.9 °F 99% 30.05 in 5.0 mi Calm Calm - N/A   Clear
4:55 AM 75.7 °F - 75.4 °F 99% 30.05 in 5.0 mi Calm Calm - N/A   Clear
5:15 AM 75.2 °F - 75.2 °F 100% 30.05 in 3.5 mi Calm Calm - N/A   Clear
5:35 AM 75.2 °F - 75.2 °F 100% 30.05 in 4.0 mi Calm Calm - N/A   Clear
5:55 AM 74.8 °F - 74.3 °F 98% 30.05 in 7.0 mi Calm Calm - N/A   Clear
6:15 AM 74.8 °F - 74.3 °F 98% 30.06 in 5.0 mi Calm Calm - N/A   Clear
6:35 AM 75.2 °F - 74.7 °F 98% 30.07 in 5.0 mi Calm Calm - N/A   Clear
6:55 AM 75.2 °F - 75.2 °F 100% 30.07 in 3.0 mi Calm Calm - N/A   Clear
7:15 AM 75.2 °F - 74.8 °F 99% 30.07 in 5.0 mi Calm Calm - N/A   Clear
7:35 AM 76.5 °F - 75.9 °F 98% 30.07 in 5.0 mi Calm Calm - N/A   Clear
7:55 AM 77.4 °F - 76.6 °F 98% 30.08 in 7.0 mi SE 3.5 mph - N/A   Clear
8:15 AM 78.8 °F - 77.0 °F 94% 30.09 in 10.0 mi Calm Calm - N/A   Clear
8:35 AM 79.9 °F - 77.9 °F 94% 30.10 in 10.0 mi SSE 3.5 mph - N/A   Clear
8:55 AM 81.5 °F 89.7 °F 77.9 °F 89% 30.11 in 10.0 mi Calm Calm - N/A   Clear
9:15 AM 83.1 °F 92.9 °F 77.9 °F 84% 30.11 in 10.0 mi South 3.5 mph - N/A   Clear
9:35 AM 84.7 °F 96.1 °F 78.1 °F 80% 30.11 in 10.0 mi ESE 3.5 mph - N/A   Clear
9:55 AM 85.5 °F 97.2 °F 78.1 °F 78% 30.12 in 10.0 mi SSE 5.8 mph - N/A   Clear
10:15 AM 85.6 °F 96.4 °F 77.0 °F 75% 30.12 in 10.0 mi Calm Calm - N/A   Scattered Clouds
10:35 AM 85.6 °F 96.4 °F 76.8 °F 75% 30.12 in 10.0 mi SSW 4.6 mph - N/A   Scattered Clouds
10:55 AM 85.8 °F 95.9 °F 76.1 °F 73% 30.12 in 10.0 mi SSW 4.6 mph - N/A Thunderstorm Mostly Cloudy
11:15 AM 87.4 °F 97.7 °F 75.7 °F 68% 30.13 in 10.0 mi WSW 4.6 mph - N/A Thunderstorm Thunderstorm
11:35 AM 85.1 °F 90.4 °F 71.1 °F 63% 30.14 in 10.0 mi WSW 19.6 mph 27.6 mph N/A Thunderstorm Scattered Clouds
11:55 AM 79.3 °F - 71.1 °F 76% 30.15 in 7.0 mi SW 12.7 mph 17.3 mph N/A Thunderstorm Thunderstorm
12:15 PM 77.4 °F - 70.2 °F 78% 30.14 in 7.0 mi SW 11.5 mph 19.6 mph N/A Thunderstorm Thunderstorm
12:35 PM 76.8 °F - 70.5 °F 81% 30.15 in 10.0 mi SSW 9.2 mph - N/A Thunderstorm Mostly Cloudy
12:55 PM 76.3 °F - 71.1 °F 84% 30.13 in 10.0 mi SSE 8.1 mph - N/A Rain , Thunderstorm Light Thunderstorms and Rain
1:15 PM 76.6 °F - 71.4 °F 84% 30.13 in 10.0 mi SSE 8.1 mph - N/A Rain Light Rain
1:35 PM 78.4 °F - 70.9 °F 77% 30.11 in 10.0 mi SW 4.6 mph - N/A   Scattered Clouds
1:55 PM 80.8 °F 85.1 °F 72.3 °F 75% 30.12 in 10.0 mi WSW 5.8 mph - N/A   Clear
2:15 PM 83.1 °F 89.2 °F 73.2 °F 72% 30.11 in 10.0 mi West 6.9 mph - N/A Thunderstorm Clear
2:35 PM 86.7 °F 93.3 °F 72.3 °F 62% 30.10 in 10.0 mi West 6.9 mph - N/A   Clear
2:55 PM 86.9 °F 93.7 °F 72.7 °F 62% 30.10 in 10.0 mi WSW 6.9 mph - N/A   Clear
3:15 PM 88.5 °F 94.9 °F 71.8 °F 57% 30.09 in 10.0 mi WSW 9.2 mph - N/A   Clear
3:35 PM 86.5 °F 95.0 °F 74.5 °F 67% 30.09 in 10.0 mi West 5.8 mph - N/A   Clear
3:55 PM 85.3 °F 93.7 °F 74.8 °F 71% 30.09 in 10.0 mi WSW 4.6 mph - N/A   Clear
4:15 PM 83.7 °F 91.3 °F 75.0 °F 75% 30.09 in 10.0 mi North 9.2 mph - N/A   Clear
4:35 PM 82.0 °F 88.6 °F 74.8 °F 79% 30.09 in 10.0 mi North 4.6 mph - N/A   Clear
4:55 PM 81.5 °F 87.4 °F 74.3 °F 79% 30.08 in 10.0 mi NNE 4.6 mph - N/A   Clear
5:15 PM 81.3 °F 86.8 °F 73.9 °F 78% 30.08 in 10.0 mi NE 3.5 mph - N/A   Clear
5:35 PM 81.3 °F 87.2 °F 74.7 °F 80% 30.08 in 10.0 mi Calm Calm - N/A   Clear
5:55 PM 81.1 °F 86.6 °F 73.9 °F 79% 30.07 in 10.0 mi NNW 3.5 mph - N/A   Clear
6:15 PM 80.8 °F 86.1 °F 74.3 °F 81% 30.06 in 10.0 mi Calm Calm - N/A   Clear
6:35 PM 80.6 °F 85.5 °F 73.8 °F 80% 30.06 in 10.0 mi NNW 3.5 mph - N/A   Clear
6:55 PM 80.2 °F 85.5 °F 75.2 °F 85% 30.06 in 10.0 mi Calm Calm - N/A   Clear
7:15 PM 79.9 °F - 75.7 °F 87% 30.05 in 10.0 mi North 3.5 mph - N/A   Clear
7:35 PM 79.5 °F - 75.4 °F 87% 30.05 in 10.0 mi North 4.6 mph - N/A   Clear
7:55 PM 78.6 °F - 74.5 °F 87% 30.06 in 10.0 mi North 4.6 mph - N/A   Clear
8:15 PM 78.3 °F - 74.3 °F 88% 30.08 in 10.0 mi Calm Calm - N/A   Clear
8:35 PM 78.1 °F - 73.8 °F 86% 30.08 in 10.0 mi ENE 3.5 mph - N/A   Clear
8:55 PM 77.0 °F - 73.4 °F 89% 30.08 in 10.0 mi NE 3.5 mph - N/A   Clear
9:15 PM 76.8 °F - 72.9 °F 88% 30.08 in 10.0 mi Calm Calm - N/A   Clear
9:35 PM 76.6 °F - 73.2 °F 89% 30.09 in 10.0 mi Calm Calm - N/A   Clear
9:55 PM 76.5 °F - 73.4 °F 90% 30.10 in 10.0 mi Calm Calm - N/A   Clear
10:15 PM 75.9 °F - 73.4 °F 92% 30.12 in 10.0 mi Calm Calm - N/A   Clear
10:35 PM 75.2 °F - 73.4 °F 94% 30.12 in 10.0 mi Calm Calm - N/A   Clear
10:55 PM 74.5 °F - 72.9 °F 95% 30.12 in 10.0 mi Calm Calm - N/A   Clear
11:15 PM 74.5 °F - 72.9 °F 95% 30.11 in 7.0 mi NNW 3.5 mph - N/A   Clear
11:35 PM 73.9 °F - 72.9 °F 96% 30.11 in 10.0 mi Calm Calm - N/A   Clear
11:55 PM 73.8 °F - 72.7 °F 96% 30.10 in 10.0 mi Calm Calm - N/A   Clear